When you browse on this site, cookies collect data to enhance your experience and personalize the content and advertising you see.
Visit our Privacy Policy to learn more. By continuing to use the site, you agree to this use of cookies and data.
  • în România
  • Lista ţărilor
  • Pe 7 zile
  • Temperatura apei
  • Hartă satelitară
  • Meteo pe hartă
  • Widget-uri
  • user-avatar
    Intrare

    Meteo pe oră la Zebrzydow

    Astăzi, 17 Iunie, Luni

    Timp Temperatura Precipitaţii Vânt Presiune Umiditate
    00:00 +16°C° 0 mm 1 m/s 748 mmHg 81%
    01:00 +15°C° 0 mm 1 m/s 748 mmHg 82%
    02:00 +15°C° 0 mm 1 m/s 748 mmHg 85%
    03:00 +14°C° 0 mm 1 m/s 748 mmHg 88%
    04:00 +14°C° 0 mm 1 m/s 748 mmHg 91%
    05:00 +15°C° 0 mm 1 m/s 749 mmHg 86%
    06:00 +18°C° 0 mm 1 m/s 749 mmHg 81%
    07:00 +19°C° 0 mm 1 m/s 749 mmHg 77%
    08:00 +19°C° 0 mm 2 m/s 749 mmHg 71%
    09:00 +20°C° 0 mm 2 m/s 749 mmHg 64%
    10:00 +22°C° 0 mm 3 m/s 749 mmHg 58%
    11:00 +22°C° 0 mm 3 m/s 749 mmHg 56%
    12:00 +24°C° 0 mm 3 m/s 749 mmHg 54%
    13:00 +24°C° 0 mm 3 m/s 748 mmHg 52%
    14:00 +24°C° 0 mm 3 m/s 748 mmHg 53%
    15:00 +24°C° 0 mm 3 m/s 748 mmHg 55%
    16:00 +24°C° 0 mm 3 m/s 748 mmHg 57%
    17:00 +22°C° 0 mm 3 m/s 748 mmHg 64%
    18:00 +21°C° 0 mm 2 m/s 747 mmHg 70%
    19:00 +20°C° 0 mm 2 m/s 747 mmHg 77%
    20:00 +19°C° 0 mm 2 m/s 747 mmHg 80%
    21:00 +18°C° 0 mm 1 m/s 747 mmHg 83%
    22:00 +16°C° 0 mm 1 m/s 748 mmHg 85%
    23:00 +15°C° 0 mm 1 m/s 747 mmHg 87%

    Mâine, 18 Iunie, Marţi

    Timp Temperatura Precipitaţii Vânt Presiune Umiditate
    00:00 +15°C° 0 mm 1 m/s 747 mmHg 88%
    01:00 +13°C° 0 mm 0 m/s 747 mmHg 89%
    02:00 +13°C° 0 mm 0 m/s 747 mmHg 90%
    03:00 +13°C° 0 mm 0 m/s 747 mmHg 91%
    04:00 +13°C° 0 mm 0 m/s 747 mmHg 92%
    05:00 +15°C° 0 mm 1 m/s 747 mmHg 90%
    06:00 +18°C° 0 mm 1 m/s 747 mmHg 88%
    07:00 +18°C° 0 mm 2 m/s 747 mmHg 86%
    08:00 +20°C° 0 mm 2 m/s 747 mmHg 82%
    09:00 +21°C° 0 mm 3 m/s 747 mmHg 78%
    10:00 +22°C° 0 mm 3 m/s 747 mmHg 75%
    11:00 +24°C° 0 mm 3 m/s 746 mmHg 72%
    12:00 +25°C° 0 mm 3 m/s 746 mmHg 69%
    13:00 +25°C° 0 mm 3 m/s 745 mmHg 66%
    14:00 +25°C° 0 mm 3 m/s 745 mmHg 66%
    15:00 +26°C° 0 mm 3 m/s 745 mmHg 66%
    16:00 +26°C° 0 mm 3 m/s 744 mmHg 67%
    17:00 +25°C° 0 mm 3 m/s 744 mmHg 72%
    18:00 +24°C° 0 mm 3 m/s 744 mmHg 77%
    19:00 +23°C° 0 mm 2 m/s 743 mmHg 82%
    20:00 +21°C° 0 mm 2 m/s 743 mmHg 85%
    21:00 +20°C° 0 mm 2 m/s 743 mmHg 88%
    22:00 +19°C° 0 mm 1 m/s 744 mmHg 92%
    23:00 +19°C° 0 mm 1 m/s 743 mmHg 92%

    Poimâine, 19 Iunie, Miercuri

    Timp Temperatura Precipitaţii Vânt Presiune Umiditate
    00:00 +19°C° 0 mm 1 m/s 743 mmHg 93%
    01:00 +18°C° 0 mm 1 m/s 743 mmHg 93%
    02:00 +18°C° 0 mm 1 m/s 742 mmHg 93%
    03:00 +18°C° 0 mm 1 m/s 742 mmHg 93%
    04:00 +18°C° 0 mm 1 m/s 742 mmHg 93%
    05:00 +19°C° 0 mm 1 m/s 742 mmHg 89%
    06:00 +21°C° 0 mm 1 m/s 742 mmHg 86%
    07:00 +23°C° 0 mm 1 m/s 742 mmHg 82%
    08:00 +24°C° 0 mm 1 m/s 742 mmHg 76%
    09:00 +26°C° 0 mm 1 m/s 742 mmHg 70%
    10:00 +27°C° 0 mm 1 m/s 742 mmHg 64%
    11:00 +28°C° 0 mm 1 m/s 742 mmHg 61%
    12:00 +28°C° 0 mm 1 m/s 741 mmHg 57%
    13:00 +29°C° 0 mm 1 m/s 741 mmHg 54%
    14:00 +29°C° 0.1 mm 2 m/s 741 mmHg 56%
    15:00 +29°C° 0.1 mm 2 m/s 741 mmHg 59%
    16:00 +29°C° 0.1 mm 2 m/s 740 mmHg 62%
    17:00 +27°C° 0.2 mm 2 m/s 740 mmHg 67%
    18:00 +26°C° 0.2 mm 1 m/s 740 mmHg 72%
    19:00 +25°C° 0.2 mm 1 m/s 740 mmHg 77%
    20:00 +24°C° 0 mm 1 m/s 740 mmHg 79%
    21:00 +23°C° 0 mm 2 m/s 740 mmHg 81%
    22:00 +21°C° 0 mm 2 m/s 741 mmHg 83%
    23:00 +20°C° 0 mm 2 m/s 740 mmHg 84%

    20 Iunie, Joi

    Timp Temperatura Precipitaţii Vânt Presiune Umiditate
    00:00 +20°C° 0 mm 2 m/s 740 mmHg 84%
    01:00 +19°C° 0 mm 2 m/s 740 mmHg 85%
    02:00 +19°C° 0 mm 2 m/s 740 mmHg 85%
    03:00 +19°C° 0 mm 2 m/s 740 mmHg 85%
    04:00 +20°C° 0 mm 1 m/s 740 mmHg 86%
    05:00 +22°C° 0 mm 1 m/s 741 mmHg 81%
    06:00 +23°C° 0 mm 1 m/s 741 mmHg 77%
    07:00 +25°C° 0 mm 1 m/s 741 mmHg 73%
    08:00 +26°C° 0 mm 1 m/s 741 mmHg 68%
    09:00 +28°C° 0 mm 1 m/s 741 mmHg 63%
    10:00 +29°C° 0 mm 2 m/s 742 mmHg 58%
    11:00 +29°C° 0.3 mm 2 m/s 742 mmHg 59%
    12:00 +29°C° 0.3 mm 2 m/s 741 mmHg 60%
    13:00 +29°C° 0.3 mm 3 m/s 741 mmHg 61%
    14:00 +29°C° 0.4 mm 2 m/s 741 mmHg 61%
    15:00 +29°C° 0.4 mm 2 m/s 741 mmHg 60%
    16:00 +29°C° 0.4 mm 2 m/s 741 mmHg 60%
    17:00 +27°C° 0.4 mm 2 m/s 741 mmHg 66%
    18:00 +26°C° 0.4 mm 2 m/s 741 mmHg 72%
    19:00 +25°C° 0.4 mm 2 m/s 741 mmHg 77%
    20:00 +24°C° 0.7 mm 1 m/s 741 mmHg 79%
    21:00 +22°C° 0.7 mm 1 m/s 741 mmHg 82%
    22:00 +21°C° 0.7 mm 1 m/s 742 mmHg 84%
    23:00 +21°C° 0.3 mm 1 m/s 742 mmHg 86%

    21 Iunie, Vineri

    Timp Temperatura Precipitaţii Vânt Presiune Umiditate
    00:00 +20°C° 0.3 mm 1 m/s 742 mmHg 87%
    01:00 +18°C° 0.3 mm 0 m/s 742 mmHg 89%
    02:00 +20°C° 0.4 mm 1 m/s 742 mmHg 90%
    03:00 +19°C° 0.4 mm 1 m/s 742 mmHg 91%
    04:00 +19°C° 0.4 mm 1 m/s 742 mmHg 93%
    05:00 +19°C° 0.3 mm 2 m/s 742 mmHg 92%
    06:00 +20°C° 0.3 mm 2 m/s 742 mmHg 92%
    07:00 +20°C° 0.3 mm 3 m/s 742 mmHg 91%
    08:00 +21°C° 0.2 mm 4 m/s 742 mmHg 88%
    09:00 +22°C° 0.2 mm 4 m/s 742 mmHg 86%
    10:00 +22°C° 0.2 mm 4 m/s 742 mmHg 83%
    11:00 +23°C° 0.1 mm 4 m/s 742 mmHg 81%
    12:00 +23°C° 0.1 mm 4 m/s 742 mmHg 80%
    13:00 +25°C° 0.1 mm 4 m/s 742 mmHg 78%
    14:00 +25°C° 0.1 mm 3 m/s 742 mmHg 78%
    15:00 +25°C° 0.1 mm 3 m/s 741 mmHg 78%
    16:00 +25°C° 0.1 mm 3 m/s 741 mmHg 78%
    17:00 +24°C° 0.3 mm 3 m/s 741 mmHg 81%
    18:00 +24°C° 0.3 mm 3 m/s 741 mmHg 84%
    19:00 +22°C° 0.3 mm 3 m/s 741 mmHg 87%
    20:00 +21°C° 0.2 mm 3 m/s 741 mmHg 90%
    21:00 +20°C° 0.2 mm 3 m/s 742 mmHg 94%
    22:00 +19°C° 0.2 mm 2 m/s 742 mmHg 97%
    23:00 +19°C° 0.2 mm 3 m/s 742 mmHg 97%

    22 Iunie, Sâmbătă

    Timp Temperatura Precipitaţii Vânt Presiune Umiditate
    00:00 +18°C° 0.2 mm 3 m/s 742 mmHg 97%
    01:00 +18°C° 0.2 mm 3 m/s 742 mmHg 97%
    02:00 +18°C° 0 mm 3 m/s 742 mmHg 97%
    03:00 +18°C° 0 mm 3 m/s 742 mmHg 97%
    04:00 +18°C° 0 mm 3 m/s 742 mmHg 97%
    05:00 +18°C° 1.1 mm 3 m/s 742 mmHg 97%
    06:00 +18°C° 1.1 mm 3 m/s 742 mmHg 97%
    07:00 +18°C° 1.1 mm 3 m/s 742 mmHg 97%
    08:00 +18°C° 0.8 mm 3 m/s 742 mmHg 97%
    09:00 +18°C° 0.8 mm 3 m/s 742 mmHg 97%
    10:00 +18°C° 0.8 mm 3 m/s 742 mmHg 96%
    11:00 +18°C° 0.4 mm 3 m/s 742 mmHg 96%
    12:00 +19°C° 0.4 mm 3 m/s 742 mmHg 95%
    13:00 +19°C° 0.4 mm 3 m/s 742 mmHg 94%
    14:00 +19°C° 0.1 mm 3 m/s 742 mmHg 93%
    15:00 +19°C° 0.1 mm 4 m/s 742 mmHg 93%
    16:00 +19°C° 0.1 mm 4 m/s 741 mmHg 92%
    17:00 +19°C° 0.2 mm 4 m/s 742 mmHg 92%
    18:00 +18°C° 0.2 mm 3 m/s 742 mmHg 93%
    19:00 +18°C° 0.2 mm 3 m/s 742 mmHg 94%
    20:00 +18°C° 0.1 mm 3 m/s 742 mmHg 95%
    21:00 +17°C° 0.1 mm 2 m/s 742 mmHg 96%
    22:00 +17°C° 0.1 mm 2 m/s 742 mmHg 97%
    23:00 +17°C° 0 mm 2 m/s 742 mmHg 97%
    Arată mai mult